Afton Municipal Airport, WY

5:26 PM MST on November 11, 2019 (GMT -0700)
Afton Municipal

Weather History for KAFO - September, 2019

Change the Weather History Date:

Friday, September 6, 2019

  Actual Average Record
Temperature  
Mean Temperature 60 °F -  
Max Temperature 71 °F 76 °F 80 °F (2018)
Min Temperature 50 °F 36 °F 26 °F (2015)
Degree Days  
Heating Degree Days 4    
Growing Degree Days 10 (Base 50)    
Moisture  
Dew Point 52 °F    
Average Humidity 83    
Maximum Humidity 100    
Minimum Humidity 46    
Precipitation  
Precipitation 0.00 in - - ()
Sea Level Pressure  
Sea Level Pressure 30.32 in    
Wind  
Wind Speed 3 mph ()    
Max Wind Speed 17 mph    
Max Gust Speed 26 mph    
Visibility 9.7 miles    
Events Rain , Thunderstorm    
Averages and records for this station are not official NWS values.
T = Trace of Precipitation, MM = Missing Value Source: Averaged Metar Reports

Daily Weather History Graph

Daily Weather History Graph

Search for Another Location

Airport or City:

Astronomy

Sep. 06, 2019 Rise Set
Actual Time 6:53 AM MDT 7:49 PM MDT
Civil Twilight 6:24 AM MDT 8:18 PM MDT
Nautical Twilight 5:50 AM MDT 8:52 PM MDT
Astronomical Twilight 5:14 AM MDT 9:28 PM MDT
Moon 3:16 PM MDT (9/6) No Moon Set
Length of Visible Light 13h 53m
Length of Day
12h 56m
First Quarter, 56% of the Moon is Illuminated
Sep 6
First Quarter
Sep 13
Full
Sep 21
Last Quarter
Sep 28
New
Oct 5
First Quarter

Hourly Weather History & Observations

Time (MDT) Temp. Dew Point Humidity Pressure Visibility Wind Dir Wind Speed Gust Speed Precip Events Conditions
12:15 AM 55.4 °F 50.0 °F 82% 30.35 in 10.0 mi Calm Calm - N/A   Clear
12:35 AM 53.6 °F 51.8 °F 94% 30.34 in 10.0 mi SSW 3.5 mph - N/A   Clear
12:55 AM 53.6 °F 50.0 °F 88% 30.34 in 10.0 mi Calm Calm - N/A   Scattered Clouds
1:15 AM 53.6 °F 51.8 °F 94% 30.34 in 10.0 mi SSW 5.8 mph - N/A   Scattered Clouds
1:35 AM 53.6 °F 51.8 °F 94% 30.34 in 10.0 mi SE 3.5 mph - N/A   Clear
1:55 AM 55.4 °F 50.0 °F 82% 30.34 in 10.0 mi West 3.5 mph - N/A   Clear
2:15 AM 53.6 °F 51.8 °F 94% 30.34 in 10.0 mi NNE 6.9 mph - N/A   Clear
2:35 AM 53.6 °F 51.8 °F 94% 30.36 in 10.0 mi Calm Calm - N/A   Scattered Clouds
2:55 AM 55.4 °F 51.8 °F 88% 30.36 in 10.0 mi Calm Calm - N/A   Overcast
3:15 AM 53.6 °F 51.8 °F 94% 30.36 in 10.0 mi Calm Calm - N/A Rain Light Rain
3:35 AM 53.6 °F 51.8 °F 94% 30.36 in 10.0 mi WNW 3.5 mph - N/A   Mostly Cloudy
3:55 AM 53.6 °F 51.8 °F 94% 30.34 in 10.0 mi Calm Calm - N/A Rain Rain
4:15 AM 53.6 °F 51.8 °F 94% 30.35 in 10.0 mi South 4.6 mph - N/A   Mostly Cloudy
4:35 AM 53.6 °F 51.8 °F 94% 30.35 in 10.0 mi Calm Calm - N/A   Mostly Cloudy
4:55 AM 53.6 °F 51.8 °F 94% 30.34 in 10.0 mi WNW 4.6 mph - N/A Rain Light Rain
5:15 AM 53.6 °F 53.6 °F 100% 30.34 in 10.0 mi Calm Calm - N/A Rain Light Rain
5:35 AM 53.6 °F 53.6 °F 100% 30.34 in 10.0 mi NE 3.5 mph - N/A   Overcast
5:55 AM 55.4 °F 53.6 °F 94% 30.34 in 10.0 mi Calm Calm - N/A   Overcast
6:15 AM 53.6 °F 51.8 °F 94% 30.34 in 10.0 mi Calm Calm - N/A   Mostly Cloudy
6:35 AM 53.6 °F 51.8 °F 94% 30.35 in 10.0 mi Calm Calm - N/A   Mostly Cloudy
6:55 AM 53.6 °F 51.8 °F 94% 30.35 in 10.0 mi Calm Calm - N/A   Mostly Cloudy
7:15 AM 53.6 °F 53.6 °F 100% 30.35 in 10.0 mi Calm Calm - N/A   Scattered Clouds
7:35 AM 53.6 °F 53.6 °F 100% 30.34 in 10.0 mi Calm Calm - N/A   Scattered Clouds
7:55 AM 53.6 °F 53.6 °F 100% 30.35 in 10.0 mi Calm Calm - N/A   Scattered Clouds
8:15 AM 53.6 °F 53.6 °F 100% 30.35 in 10.0 mi ENE 3.5 mph - N/A   Clear
8:35 AM 59.0 °F 53.6 °F 82% 30.34 in 10.0 mi Calm Calm - N/A   Clear
8:55 AM 59.0 °F 51.8 °F 77% 30.33 in 10.0 mi Calm Calm - N/A   Scattered Clouds
9:15 AM 60.8 °F 51.8 °F 72% 30.33 in 10.0 mi Calm Calm - N/A   Scattered Clouds
9:35 AM 60.8 °F 53.6 °F 77% 30.33 in 10.0 mi Calm Calm - N/A   Mostly Cloudy
9:55 AM 60.8 °F 53.6 °F 77% 30.33 in 10.0 mi Calm Calm - N/A   Overcast
10:15 AM 60.8 °F 53.6 °F 77% 30.33 in 10.0 mi Calm Calm - N/A   Overcast
10:35 AM 60.8 °F 53.6 °F 77% 30.33 in 10.0 mi Calm Calm - N/A   Overcast
10:55 AM 62.6 °F 53.6 °F 72% 30.33 in 10.0 mi Calm Calm - N/A   Light Drizzle
11:15 AM 64.4 °F 51.8 °F 64% 30.33 in 10.0 mi Calm Calm - N/A   Overcast
11:35 AM 66.2 °F 53.6 °F 64% 30.32 in 10.0 mi West 4.6 mph - N/A   Mostly Cloudy
11:55 AM 68.0 °F 53.6 °F 60% 30.31 in 10.0 mi Calm Calm - N/A Thunderstorm Scattered Clouds
12:15 PM 68.0 °F 53.6 °F 60% 30.31 in 10.0 mi Calm Calm - N/A   Mostly Cloudy
12:55 PM 68.0 °F 51.8 °F 56% 30.30 in 10.0 mi SSE 17.3 mph 24.2 mph N/A   Overcast
1:15 PM 69.8 °F 50.0 °F 49% 30.30 in 10.0 mi SSE 17.3 mph 21.9 mph N/A   Overcast
1:35 PM 71.6 °F 50.0 °F 46% 30.29 in 10.0 mi SE 16.1 mph 20.7 mph N/A   Mostly Cloudy
1:55 PM 69.8 °F 50.0 °F 49% 30.29 in 10.0 mi South 8.1 mph - N/A   Overcast
2:15 PM 62.6 °F 53.6 °F 72% 30.31 in 5.0 mi WNW 15.0 mph 26.5 mph N/A Rain Heavy Rain
2:35 PM 57.2 °F 55.4 °F 94% 30.34 in 4.0 mi NE 16.1 mph - N/A Rain Rain
2:55 PM 59.0 °F 55.4 °F 88% 30.33 in 10.0 mi NNE 8.1 mph - N/A   Light Drizzle
3:15 PM 59.0 °F 53.6 °F 82% 30.33 in 10.0 mi NNE 9.2 mph 17.3 mph N/A   Overcast
3:35 PM 60.8 °F 53.6 °F 77% 30.33 in 10.0 mi North 10.4 mph - N/A Rain , Thunderstorm Light Thunderstorms and Rain
3:55 PM 57.2 °F 53.6 °F 88% 30.36 in 5.0 mi NNW 9.2 mph - N/A Rain Heavy Rain
4:15 PM 55.4 °F 53.6 °F 94% 30.33 in 7.0 mi ENE 9.2 mph - N/A Rain , Thunderstorm Light Thunderstorms and Rain
4:35 PM 59.0 °F 53.6 °F 82% 30.31 in 10.0 mi East 4.6 mph - N/A   Overcast
4:55 PM 62.6 °F 50.0 °F 63% 30.31 in 10.0 mi SW 3.5 mph - N/A   Scattered Clouds
5:15 PM 62.6 °F 50.0 °F 63% 30.30 in 10.0 mi WSW 4.6 mph - N/A   Scattered Clouds
5:35 PM 64.4 °F 51.8 °F 64% 30.30 in 10.0 mi Calm Calm - N/A   Scattered Clouds
5:55 PM 64.4 °F 51.8 °F 64% 30.30 in 10.0 mi Calm Calm - N/A   Clear
6:15 PM 62.6 °F 51.8 °F 68% 30.31 in 10.0 mi Calm Calm - N/A   Clear
6:35 PM 62.6 °F 51.8 °F 68% 30.30 in 10.0 mi Calm Calm - N/A   Scattered Clouds
6:55 PM 62.6 °F 50.0 °F 63% 30.30 in 10.0 mi Calm Calm - N/A   Scattered Clouds
7:15 PM 62.6 °F 50.0 °F 63% 30.30 in 10.0 mi NE 3.5 mph - N/A   Clear
7:35 PM 57.2 °F 51.8 °F 82% 30.30 in 10.0 mi Calm Calm - N/A   Clear
7:55 PM 55.4 °F 51.8 °F 88% 30.31 in 10.0 mi North 4.6 mph - N/A   Scattered Clouds
8:15 PM 57.2 °F 51.8 °F 82% 30.30 in 10.0 mi Calm Calm - N/A   Scattered Clouds
8:35 PM 55.4 °F 51.8 °F 88% 30.30 in 10.0 mi Calm Calm - N/A   Clear
8:55 PM 53.6 °F 50.0 °F 88% 30.30 in 10.0 mi SW 3.5 mph - N/A   Clear
9:15 PM 51.8 °F 51.8 °F 100% 30.30 in 10.0 mi South 3.5 mph - N/A   Clear
9:35 PM 51.8 °F 51.8 °F 100% 30.30 in 10.0 mi SSW 3.5 mph - N/A   Clear
9:55 PM 51.8 °F 50.0 °F 94% 30.30 in 10.0 mi Calm Calm - N/A   Clear
10:15 PM 50.0 °F 50.0 °F 100% 30.30 in 10.0 mi South 6.9 mph - N/A   Clear
10:35 PM 51.8 °F 50.0 °F 94% 30.31 in 10.0 mi NW 4.6 mph - N/A   Clear
10:55 PM 51.8 °F 50.0 °F 94% 30.29 in 10.0 mi SW 3.5 mph - N/A   Clear
11:15 PM 50.0 °F 46.4 °F 87% 30.29 in 10.0 mi Calm Calm - N/A   Clear
11:35 PM 50.0 °F 48.2 °F 94% 30.30 in 10.0 mi Calm Calm - N/A   Clear
11:55 PM 51.8 °F 48.2 °F 88% 30.29 in 10.0 mi Calm Calm - N/A   Clear